When you browse on this site, cookies collect data to enhance your experience and personalize the content and advertising you see.
Visit our Privacy Policy to learn more. By continuing to use the site, you agree to this use of cookies and data.
  • Em Portugal
  • Lista de países
  • Para 7 dias
  • Temperatura da água
  • Mapa do tempo
  • Widgets de tempo
  • user-avatar
    Iniciar Sessão

    Previsão horária em Burdeki

    Hoje, 23 Setembro, Segunda-feira

    Tempo Temperatura Precipitação Vento Pressão Humidade
    00:00 +8°C° 0 mm 2 m/s 700 mmHg 68%
    01:00 +8°C° 0 mm 2 m/s 699 mmHg 65%
    02:00 +8°C° 0 mm 2 m/s 699 mmHg 63%
    03:00 +8°C° 0 mm 2 m/s 699 mmHg 59%
    04:00 +8°C° 0 mm 2 m/s 699 mmHg 59%
    05:00 +8°C° 0 mm 2 m/s 699 mmHg 59%
    06:00 +9°C° 0 mm 1 m/s 699 mmHg 59%
    07:00 +10°C° 0 mm 2 m/s 699 mmHg 53%
    08:00 +14°C° 0 mm 2 m/s 699 mmHg 48%
    09:00 +16°C° 0 mm 2 m/s 700 mmHg 39%
    10:00 +16°C° 0 mm 2 m/s 700 mmHg 39%
    11:00 +17°C° 0 mm 3 m/s 700 mmHg 39%
    12:00 +18°C° 0 mm 3 m/s 700 mmHg 39%
    13:00 +17°C° 0 mm 3 m/s 699 mmHg 41%
    14:00 +17°C° 0 mm 3 m/s 699 mmHg 43%
    15:00 +17°C° 0 mm 3 m/s 699 mmHg 45%
    16:00 +15°C° 0 mm 2 m/s 698 mmHg 52%
    17:00 +13°C° 0 mm 2 m/s 698 mmHg 60%
    18:00 +11°C° 0 mm 1 m/s 698 mmHg 67%
    19:00 +11°C° 0 mm 1 m/s 698 mmHg 67%
    20:00 +11°C° 0 mm 1 m/s 699 mmHg 66%
    21:00 +10°C° 0 mm 2 m/s 699 mmHg 66%
    22:00 +10°C° 0 mm 2 m/s 699 mmHg 65%
    23:00 +11°C° 0 mm 1 m/s 698 mmHg 64%

    Amanhã, 24 Setembro, Terça-feira

    Tempo Temperatura Precipitação Vento Pressão Humidade
    00:00 +11°C° 0 mm 1 m/s 698 mmHg 64%
    01:00 +11°C° 0 mm 1 m/s 698 mmHg 63%
    02:00 +11°C° 0 mm 1 m/s 698 mmHg 62%
    03:00 +10°C° 0 mm 1 m/s 698 mmHg 62%
    04:00 +10°C° 0 mm 1 m/s 698 mmHg 61%
    05:00 +10°C° 0 mm 1 m/s 698 mmHg 61%
    06:00 +10°C° 0 mm 1 m/s 698 mmHg 60%
    07:00 +13°C° 0 mm 2 m/s 699 mmHg 55%
    08:00 +15°C° 0 mm 2 m/s 699 mmHg 50%
    09:00 +17°C° 0 mm 2 m/s 700 mmHg 44%
    10:00 +18°C° 0 mm 2 m/s 699 mmHg 45%
    11:00 +18°C° 0 mm 3 m/s 699 mmHg 46%
    12:00 +19°C° 0 mm 3 m/s 699 mmHg 46%
    13:00 +19°C° 0 mm 3 m/s 699 mmHg 51%
    14:00 +19°C° 0 mm 3 m/s 698 mmHg 55%
    15:00 +18°C° 0 mm 3 m/s 698 mmHg 59%
    16:00 +17°C° 0 mm 2 m/s 698 mmHg 68%
    17:00 +15°C° 0 mm 2 m/s 698 mmHg 78%
    18:00 +13°C° 0 mm 1 m/s 697 mmHg 87%
    19:00 +13°C° 0 mm 1 m/s 697 mmHg 86%
    20:00 +13°C° 0 mm 1 m/s 698 mmHg 85%
    21:00 +12°C° 0 mm 1 m/s 698 mmHg 84%
    22:00 +12°C° 0 mm 1 m/s 697 mmHg 83%
    23:00 +12°C° 0 mm 1 m/s 697 mmHg 81%

    Depois de amanhã, 25 Setembro, Quarta-feira

    Tempo Temperatura Precipitação Vento Pressão Humidade
    00:00 +12°C° 0 mm 1 m/s 696 mmHg 80%
    01:00 +12°C° 0 mm 1 m/s 696 mmHg 78%
    02:00 +12°C° 0 mm 1 m/s 696 mmHg 75%
    03:00 +12°C° 0 mm 1 m/s 696 mmHg 73%
    04:00 +12°C° 0 mm 1 m/s 696 mmHg 73%
    05:00 +11°C° 0 mm 0 m/s 696 mmHg 72%
    06:00 +11°C° 0 mm 0 m/s 696 mmHg 72%
    07:00 +14°C° 0 mm 1 m/s 697 mmHg 68%
    08:00 +15°C° 0 mm 1 m/s 697 mmHg 64%
    09:00 +17°C° 0 mm 2 m/s 698 mmHg 61%
    10:00 +18°C° 0 mm 2 m/s 698 mmHg 62%
    11:00 +18°C° 0 mm 3 m/s 697 mmHg 64%
    12:00 +18°C° 0 mm 3 m/s 697 mmHg 66%
    13:00 +18°C° 0 mm 3 m/s 697 mmHg 71%
    14:00 +17°C° 0 mm 2 m/s 697 mmHg 75%
    15:00 +17°C° 0 mm 2 m/s 697 mmHg 80%
    16:00 +16°C° 0 mm 2 m/s 697 mmHg 82%
    17:00 +16°C° 0 mm 1 m/s 697 mmHg 85%
    18:00 +15°C° 0 mm 1 m/s 697 mmHg 88%
    19:00 +14°C° 0 mm 1 m/s 697 mmHg 89%
    20:00 +14°C° 0 mm 1 m/s 698 mmHg 90%
    21:00 +13°C° 0 mm 1 m/s 698 mmHg 92%
    22:00 +13°C° 0 mm 1 m/s 698 mmHg 90%
    23:00 +12°C° 0 mm 0 m/s 698 mmHg 89%

    26 Setembro, Quinta-feira

    Tempo Temperatura Precipitação Vento Pressão Humidade
    00:00 +12°C° 0 mm 0 m/s 697 mmHg 87%
    01:00 +13°C° 0 mm 1 m/s 697 mmHg 85%
    02:00 +13°C° 0 mm 1 m/s 697 mmHg 83%
    03:00 +13°C° 0 mm 1 m/s 697 mmHg 81%
    04:00 +13°C° 0 mm 1 m/s 697 mmHg 81%
    05:00 +13°C° 0 mm 1 m/s 697 mmHg 80%
    06:00 +13°C° 0 mm 1 m/s 697 mmHg 79%
    07:00 +14°C° 0 mm 1 m/s 697 mmHg 74%
    08:00 +16°C° 0 mm 1 m/s 698 mmHg 70%
    09:00 +18°C° 0 mm 1 m/s 698 mmHg 66%
    10:00 +18°C° 0 mm 2 m/s 698 mmHg 62%
    11:00 +19°C° 0 mm 3 m/s 698 mmHg 58%
    12:00 +20°C° 0 mm 3 m/s 698 mmHg 54%
    13:00 +20°C° 0 mm 3 m/s 698 mmHg 58%
    14:00 +19°C° 0 mm 3 m/s 697 mmHg 61%
    15:00 +19°C° 0 mm 3 m/s 697 mmHg 65%
    16:00 +17°C° 0 mm 2 m/s 697 mmHg 72%
    17:00 +16°C° 0 mm 1 m/s 697 mmHg 79%
    18:00 +14°C° 0 mm 1 m/s 697 mmHg 87%
    19:00 +14°C° 0 mm 1 m/s 697 mmHg 87%
    20:00 +14°C° 0 mm 1 m/s 697 mmHg 88%
    21:00 +12°C° 0 mm 0 m/s 697 mmHg 89%
    22:00 +13°C° 0 mm 1 m/s 697 mmHg 88%
    23:00 +13°C° 0 mm 1 m/s 697 mmHg 88%

    27 Setembro, Sexta-feira

    Tempo Temperatura Precipitação Vento Pressão Humidade
    00:00 +13°C° 0 mm 1 m/s 697 mmHg 87%
    01:00 +13°C° 0 mm 1 m/s 697 mmHg 86%
    02:00 +13°C° 0 mm 1 m/s 697 mmHg 84%
    03:00 +12°C° 0 mm 1 m/s 696 mmHg 83%
    04:00 +12°C° 0 mm 1 m/s 696 mmHg 82%
    05:00 +12°C° 0 mm 1 m/s 696 mmHg 81%
    06:00 +12°C° 0 mm 1 m/s 696 mmHg 80%
    07:00 +14°C° 0 mm 1 m/s 697 mmHg 73%
    08:00 +16°C° 0 mm 2 m/s 697 mmHg 66%
    09:00 +18°C° 0 mm 2 m/s 697 mmHg 59%
    10:00 +19°C° 0 mm 3 m/s 697 mmHg 57%
    11:00 +20°C° 0 mm 3 m/s 697 mmHg 55%
    12:00 +21°C° 0 mm 4 m/s 697 mmHg 54%
    13:00 +20°C° 0 mm 3 m/s 697 mmHg 56%
    14:00 +20°C° 0 mm 3 m/s 697 mmHg 59%
    15:00 +20°C° 0 mm 3 m/s 696 mmHg 61%
    16:00 +18°C° 0 mm 3 m/s 696 mmHg 68%
    17:00 +17°C° 0 mm 2 m/s 696 mmHg 75%
    18:00 +15°C° 0 mm 1 m/s 696 mmHg 82%
    19:00 +15°C° 0 mm 1 m/s 696 mmHg 81%
    20:00 +15°C° 0 mm 1 m/s 696 mmHg 80%
    21:00 +15°C° 0 mm 1 m/s 696 mmHg 79%
    22:00 +15°C° 0 mm 1 m/s 696 mmHg 78%
    23:00 +15°C° 0 mm 1 m/s 696 mmHg 76%

    28 Setembro, Sábado

    Tempo Temperatura Precipitação Vento Pressão Humidade
    00:00 +15°C° 0 mm 1 m/s 696 mmHg 75%
    01:00 +15°C° 0 mm 1 m/s 696 mmHg 76%
    02:00 +15°C° 0 mm 1 m/s 695 mmHg 78%
    03:00 +13°C° 0 mm 0 m/s 695 mmHg 79%
    04:00 +13°C° 0 mm 0 m/s 695 mmHg 79%
    05:00 +13°C° 0 mm 0 m/s 695 mmHg 79%
    06:00 +13°C° 0 mm 0 m/s 694 mmHg 79%
    07:00 +16°C° 0 mm 1 m/s 695 mmHg 73%
    08:00 +18°C° 0 mm 1 m/s 695 mmHg 67%
    09:00 +19°C° 0 mm 2 m/s 695 mmHg 61%
    10:00 +19°C° 0.1 mm 2 m/s 695 mmHg 60%
    11:00 +19°C° 0.1 mm 2 m/s 695 mmHg 59%
    12:00 +19°C° 0.1 mm 3 m/s 695 mmHg 58%
    13:00 +17°C° 1.4 mm 3 m/s 696 mmHg 68%
    14:00 +16°C° 1.4 mm 3 m/s 696 mmHg 78%
    15:00 +13°C° 1.4 mm 3 m/s 696 mmHg 87%
    16:00 +13°C° 1.2 mm 3 m/s 696 mmHg 89%
    17:00 +13°C° 1.2 mm 2 m/s 697 mmHg 91%
    18:00 +12°C° 1.2 mm 2 m/s 697 mmHg 93%
    19:00 +12°C° 0.1 mm 1 m/s 698 mmHg 93%
    20:00 +12°C° 0.1 mm 1 m/s 698 mmHg 93%
    21:00 +12°C° 0.1 mm 1 m/s 698 mmHg 93%
    22:00 +12°C° 0 mm 1 m/s 698 mmHg 93%
    23:00 +11°C° 0 mm 1 m/s 699 mmHg 93%
    Mostrar mais